TimeMST,TemperatureF,Dew PointF,Humidity,Sea Level PressureIn,VisibilityMPH,Wind Direction,Wind SpeedMPH,Gust SpeedMPH,PrecipitationIn,Events,Conditions,WindDirDegrees,DateUTC
12:53 AM,32.0,12.9,45,30.27,10.0,WNW,11.5,-,N/A,,Mostly Cloudy,300,2013-03-01 07:53:00
1:53 AM,32.0,14.0,48,30.27,10.0,NW,10.4,-,N/A,,Mostly Cloudy,310,2013-03-01 08:53:00
2:53 AM,28.9,15.1,56,30.28,10.0,NNE,8.1,-,N/A,,Mostly Cloudy,30,2013-03-01 09:53:00
3:53 AM,24.1,16.0,71,30.34,10.0,SSE,4.6,-,N/A,,Overcast,160,2013-03-01 10:53:00
5:53 AM,25.0,14.0,63,30.36,10.0,SSE,8.1,-,N/A,,Scattered Clouds,150,2013-03-01 12:53:00
6:53 AM,24.1,12.9,62,30.38,10.0,SSE,8.1,-,N/A,,Mostly Cloudy,160,2013-03-01 13:53:00
8:53 AM,30.0,16.0,56,30.38,10.0,South,8.1,-,N/A,,Mostly Cloudy,170,2013-03-01 15:53:00
11:53 AM,36.0,16.0,44,30.36,10.0,ESE,5.8,-,N/A,,Mostly Cloudy,120,2013-03-01 18:53:00
12:53 PM,37.9,17.1,43,30.31,10.0,East,5.8,-,N/A,,Mostly Cloudy,100,2013-03-01 19:53:00
1:53 PM,39.9,17.1,40,30.29,10.0,Calm,Calm,-,N/A,,Mostly Cloudy,0,2013-03-01 20:53:00
2:53 PM,41.0,17.1,38,30.29,10.0,ESE,3.5,-,N/A,,Mostly Cloudy,110,2013-03-01 21:53:00
3:53 PM,43.0,17.1,35,30.30,10.0,East,4.6,-,N/A,,Mostly Cloudy,80,2013-03-01 22:53:00
4:53 PM,41.0,19.9,43,30.34,10.0,NE,4.6,-,N/A,,Mostly Cloudy,50,2013-03-01 23:53:00
5:53 PM,37.9,19.0,47,30.37,10.0,NE,3.5,-,N/A,,Mostly Cloudy,50,2013-03-02 00:53:00
6:53 PM,35.1,21.9,59,30.40,10.0,SE,5.8,-,N/A,,Mostly Cloudy,130,2013-03-02 01:53:00
7:53 PM,30.9,21.9,69,30.42,10.0,South,6.9,-,N/A,,Mostly Cloudy,190,2013-03-02 02:53:00
8:53 PM,30.9,21.9,69,30.40,10.0,South,6.9,-,N/A,,Scattered Clouds,180,2013-03-02 03:53:00
9:53 PM,28.9,21.0,72,30.38,10.0,South,6.9,-,N/A,,Scattered Clouds,190,2013-03-02 04:53:00
10:53 PM,28.9,21.0,72,30.37,10.0,SSW,4.6,-,N/A,,Scattered Clouds,200,2013-03-02 05:53:00
11:53 PM,30.0,21.0,69,30.36,10.0,SW,3.5,-,N/A,,Scattered Clouds,220,2013-03-02 06:53:00